GFSFLT2_700_spd_354.txt.gz
Wind_Speed
26 27 29 31 31 32 32 31 30 29 28 29 29 30 31 31 32 33 34 35 35 36 36 36 37 38 38
27 28 28 29 30 30 30 30 29 29 30 30 30 31 32 33 33 34 35 36 37 36 36 36 36 36 37
29 29 29 29 29 29 29 29 29 30 31 31 32 32 32 32 32 32 32 33 34 34 35 35 34 33 34
28 28 27 27 27 27 28 29 29 30 30 31 30 30 30 29 30 30 31 31 32 33 34 34 34 34 35
24 23 23 24 25 26 27 27 27 27 28 28 29 29 29 29 30 31 31 32 33 34 35 36 36 36 37
20 21 22 23 24 25 26 26 27 27 28 30 30 30 30 31 32 32 33 33 35 36 37 37 37 36 36
21 22 23 25 25 26 26 27 28 30 29 29 32 32 32 34 34 35 35 35 35 34 33 33 33 33 33
24 25 26 26 26 27 28 29 29 31 32 31 31 32 32 34 33 32 30 30 30 31 32 33 34 35 36
25 25 26 27 27 28 29 29 30 30 32 33 31 30 29 29 29 30 31 32 33 33 34 35 35 36 35
25 27 27 28 28 28 29 29 30 30 30 30 29 30 29 28 29 30 31 31 32 33 34 35 36 37 37
27 27 27 28 28 29 29 30 30 29 29 28 29 30 32 33 29 28 30 30 31 32 34 35 36 38 39
27 28 28 29 30 31 31 30 28 27 28 30 32 32 32 32 32 29 30 31 32 32 34 35 36 38 40
29 30 30 30 31 30 28 27 28 29 30 31 32 33 33 33 34 31 34 31 32 34 34 36 37 38 40
31 30 30 30 28 27 27 29 29 29 32 33 33 34 34 35 37 36 36 38 36 35 37 38 38 39 42
30 28 26 26 28 29 30 30 30 30 29 33 36 36 37 38 38 38 39 39 39 40 40 40 39 40 42
27 27 28 29 30 30 31 31 31 32 31 32 34 38 40 40 41 41 39 40 41 41 42 44 44 41 44
28 29 30 30 31 31 32 33 33 34 34 35 36 39 42 42 40 38 40 41 42 42 43 44 46 45 46

GFSFLT2_700_spd_357.txt.gz
Wind_Speed
26 25 26 26 28 29 30 30 30 30 29 28 27 27 27 27 28 29 31 32 33 33 33 34 34 34 34
26 26 27 28 29 29 30 30 29 29 29 28 28 28 28 29 29 30 31 31 32 32 32 32 32 32 33
27 27 28 28 29 29 29 28 28 28 28 28 28 28 28 28 28 29 29 30 31 31 32 32 32 32 32
28 28 28 29 29 28 27 27 27 27 27 27 27 27 27 28 28 29 29 30 31 32 32 33 33 33 33
27 27 28 27 26 25 25 26 26 27 27 28 28 28 29 29 30 30 31 31 32 33 34 34 36 35 34
25 23 22 22 23 24 25 25 25 26 28 29 29 29 30 30 31 32 32 33 33 33 33 33 32 31 31
21 21 21 22 24 25 25 26 26 26 26 27 28 28 30 31 31 31 31 31 30 30 30 31 31 32 33
20 22 23 24 25 25 25 25 25 26 26 26 27 27 29 30 29 29 28 28 29 30 32 33 33 33 32
23 24 25 25 24 24 25 25 26 28 28 28 27 26 27 28 27 27 29 30 32 33 33 32 32 32 32
25 25 25 24 25 26 26 27 27 28 27 28 28 28 26 25 25 28 29 30 30 31 32 32 33 34 34
25 25 25 26 26 26 27 27 27 28 28 28 27 27 27 29 26 26 28 29 30 30 32 33 33 36 36
25 26 27 27 28 28 28 28 27 27 27 26 27 29 30 29 28 26 27 29 31 31 33 33 34 35 37
26 28 28 29 29 29 28 28 26 25 25 28 30 30 30 30 30 28 31 30 32 33 35 35 35 35 36
30 30 30 30 29 28 27 25 24 26 29 30 31 31 31 31 33 32 34 35 34 35 37 36 35 35 37
33 31 29 28 26 25 26 27 28 28 28 31 33 33 34 34 34 35 36 36 38 39 39 38 35 36 38
32 29 26 25 26 27 28 29 29 29 29 30 33 36 37 36 38 37 37 39 40 40 40 42 40 36 39
28 26 27 27 28 28 29 30 31 31 32 32 34 37 40 40 38 37 40 40 42 41 42 42 42 41 42

GFSFLT2_700_spd_360.txt.gz
Wind_Speed
27 27 27 27 27 27 28 30 30 30 30 30 30 29 29 28 27 27 28 28 29 29 30 30 30 31 31
28 28 28 28 29 30 30 31 30 30 30 30 29 28 28 27 27 28 28 28 29 30 30 31 31 32 33
31 30 29 29 30 31 31 30 30 30 29 28 27 27 27 27 28 29 29 29 30 31 32 32 32 33 34
31 30 29 29 30 30 30 29 29 28 28 27 27 27 28 28 28 29 30 31 32 33 33 34 34 34 34
31 31 30 29 31 31 30 29 27 27 27 27 28 29 30 30 30 31 32 32 33 34 34 34 33 32 30
33 35 32 30 30 29 27 27 27 27 28 29 30 30 31 30 31 31 31 31 31 30 30 29 30 30 30
35 33 31 28 27 26 26 26 27 28 28 29 28 30 30 30 30 29 28 28 28 28 28 28 30 31 31
33 30 27 26 25 25 26 26 27 27 27 28 28 30 30 30 28 27 28 27 28 29 30 31 31 30 30
27 25 25 24 25 25 25 26 26 27 27 29 28 28 29 29 28 28 28 29 31 32 32 31 31 31 31
23 24 24 24 25 25 25 26 27 29 27 30 30 29 29 28 28 29 30 32 32 31 31 31 32 33 33
23 23 24 26 25 25 26 27 28 31 29 31 30 30 30 30 27 29 30 31 31 31 32 33 34 35 37
24 25 27 26 25 27 28 29 30 31 30 30 29 30 30 29 29 27 28 29 30 32 34 34 35 36 38
25 27 26 26 27 29 29 30 30 30 30 29 29 29 30 31 31 28 30 29 31 34 36 36 36 37 38
27 27 27 28 29 30 30 30 30 29 28 29 30 31 31 32 32 31 32 33 34 35 37 38 37 38 39
28 29 30 31 31 31 31 29 27 27 29 31 32 32 33 34 34 34 35 35 37 38 40 40 38 38 39
31 31 31 31 31 30 28 28 29 29 30 31 32 35 37 37 37 36 37 39 40 41 42 44 42 38 39
32 32 32 30 30 28 28 30 30 31 31 32 34 36 39 41 42 37 41 42 44 44 43 44 45 44 43

GFSFLT2_700_spd_363.txt.gz
Wind_Speed
28 28 27 27 28 28 28 27 28 29 30 32 32 32 31 30 28 28 27 28 28 29 29 29 30 31 32
31 30 30 30 29 28 29 29 28 30 31 32 32 31 30 29 27 27 27 28 29 30 30 31 32 33 33
36 33 32 31 30 30 30 31 30 30 31 31 31 30 28 27 28 28 28 29 30 30 32 32 33 34 35
36 31 29 31 31 31 31 31 31 30 31 30 29 27 27 28 28 29 31 31 32 33 34 34 33 32 31
36 34 33 30 31 32 31 31 32 31 29 29 28 28 29 29 30 31 31 32 33 33 32 32 30 29 27
44 40 35 33 33 33 32 34 32 30 29 28 29 29 30 30 30 30 31 32 32 31 29 28 27 27 29
45 46 41 37 36 36 34 34 30 29 29 30 29 31 28 29 30 30 30 30 29 28 27 27 28 30 31
47 45 43 39 38 35 33 30 29 28 29 31 28 30 29 30 29 29 29 29 28 28 29 30 31 31 30
44 44 43 40 36 31 27 28 28 28 28 29 28 29 30 30 29 29 29 30 30 30 31 32 32 31 31
40 41 42 36 28 25 25 26 27 29 26 29 29 29 31 30 31 30 30 30 31 32 32 32 32 32 33
39 38 34 28 24 23 25 25 28 29 26 29 30 31 32 32 29 30 29 31 32 33 33 33 33 35 35
35 33 30 27 24 23 22 26 28 30 29 31 32 33 32 31 28 28 30 31 32 32 33 33 33 35 37
32 29 26 25 22 20 26 27 29 32 33 34 33 32 30 30 31 29 30 29 31 33 34 34 35 36 37
27 25 23 18 21 25 28 32 32 33 34 34 32 29 29 31 33 30 31 32 32 33 36 36 36 38 40
24 20 20 23 27 30 32 33 33 34 32 30 30 30 31 32 32 32 33 34 35 37 39 41 40 40 42
22 23 25 28 30 33 34 34 33 31 29 30 30 30 33 33 34 35 35 37 39 41 43 45 46 42 43
26 27 29 31 33 35 35 33 31 29 29 30 30 32 35 35 37 38 38 40 43 44 46 47 48 46 46